This is the latest recevied weather packets stored in our database for station/object M0JUI-1. If no packets are shown the sender has not sent any weather packets the latest 10 day(s).
| Time | Temp. | Humidity | Pressure | Rain* | Wind** | Luminosity | Snow |
|---|---|---|---|---|---|---|---|
| 1788341565 | 15° C | 19% | 1017.7 hPa | 1.52 mm | - | 180 W/m² | - |
| 1788341254 | 14.44° C | 19% | 1017.7 hPa | 1.52 mm | - | 151 W/m² | - |
| 1788340953 | 14.44° C | 19% | 1017.7 hPa | 1.78 mm | - | 131 W/m² | - |
| 1788340654 | 14.44° C | 19% | 1017.8 hPa | 1.78 mm | - | 100 W/m² | - |
| 1788340341 | 14.44° C | 19% | 1017.9 hPa | 1.52 mm | - | 79 W/m² | - |
| 1788340041 | 14.44° C | 19% | 1017.9 hPa | 1.52 mm | - | 49 W/m² | - |
| 1788339741 | 14.44° C | 19% | 1017.9 hPa | 1.27 mm | - | 46 W/m² | - |
| 1788339429 | 14.44° C | 19% | 1018 hPa | 1.27 mm | - | 70 W/m² | - |
| 1788339129 | 14.44° C | 19% | 1017.9 hPa | 1.02 mm | - | 58 W/m² | - |
| 1788338829 | 14.44° C | 19% | 1018 hPa | 0.76 mm | - | 78 W/m² | - |
| 1788338517 | 14.44° C | 19% | 1018 hPa | 1.02 mm | - | 99 W/m² | - |
| 1788338217 | 13.89° C | 19% | 1017.8 hPa | 0.76 mm | - | 68 W/m² | - |
| 1788337917 | 13.89° C | 19% | 1018 hPa | 0.76 mm | - | 73 W/m² | - |
| 1788337617 | 13.89° C | 19% | 1018 hPa | 1.02 mm | - | 50 W/m² | - |
| 1788337318 | 13.89° C | 19% | 1018 hPa | 0.76 mm | - | 68 W/m² | - |
| 1788337017 | 13.89° C | 19% | 1018 hPa | 1.02 mm | - | 76 W/m² | - |
| 1788336717 | 13.89° C | 19% | 1018.2 hPa | 1.02 mm | - | 95 W/m² | - |
| 1788336417 | 13.89° C | 19% | 1018.3 hPa | 1.02 mm | - | 94 W/m² | - |
| 1788336118 | 13.89° C | 19% | 1018.3 hPa | 0.76 mm | - | 54 W/m² | - |
| 1788335818 | 13.89° C | 18% | 1018.3 hPa | 1.02 mm | - | 60 W/m² | - |
| 1788335517 | 13.33° C | 18% | 1018.2 hPa | 1.02 mm | - | 48 W/m² | - |
| 1788335217 | 13.33° C | 18% | 1017.9 hPa | 1.02 mm | - | 29 W/m² | - |
| 1788334917 | 13.33° C | 18% | 1018 hPa | 1.02 mm | - | 36 W/m² | - |
| 1788334617 | 13.33° C | 18% | 1017.7 hPa | 1.02 mm | - | 49 W/m² | - |
| 1788334317 | 13.33° C | 18% | 1017.9 hPa | 1.02 mm | - | 33 W/m² | - |
* Rain latest hour (hover to see other rain measurements)
** Current wind speed in m/s (hover to see current wind gust speed)